TimeCDT,TemperatureF,Dew PointF,Humidity,Sea Level PressureIn,VisibilityMPH,Wind Direction,Wind SpeedMPH,Gust SpeedMPH,PrecipitationIn,Events,Conditions,WindDirDegrees,DateUTC
12:56 AM,61.0,54.0,78,30.01,10.0,Calm,Calm,-,N/A,,Clear,0,2013-05-08 05:56:00
1:56 AM,59.0,54.0,83,29.99,10.0,Calm,Calm,-,N/A,,Clear,0,2013-05-08 06:56:00
2:56 AM,59.0,53.1,81,30.00,10.0,Calm,Calm,-,N/A,,Clear,0,2013-05-08 07:56:00
3:56 AM,57.0,53.1,87,29.99,10.0,Calm,Calm,-,N/A,,Clear,0,2013-05-08 08:56:00
4:56 AM,57.9,53.1,84,30.00,10.0,Calm,Calm,-,N/A,,Clear,0,2013-05-08 09:56:00
5:56 AM,55.9,53.1,90,30.00,10.0,Calm,Calm,-,N/A,,Partly Cloudy,0,2013-05-08 10:56:00
6:56 AM,60.1,55.0,83,30.02,10.0,SSW,5.8,-,N/A,,Scattered Clouds,210,2013-05-08 11:56:00
7:56 AM,63.0,55.9,78,30.04,10.0,SW,6.9,-,N/A,,Scattered Clouds,220,2013-05-08 12:56:00
8:56 AM,69.1,57.0,65,30.05,10.0,WSW,3.5,-,N/A,,Partly Cloudy,240,2013-05-08 13:56:00
9:56 AM,73.9,55.0,52,30.05,10.0,SW,5.8,-,N/A,,Mostly Cloudy,220,2013-05-08 14:56:00
10:56 AM,78.1,55.9,46,30.05,10.0,South,10.4,-,N/A,,Mostly Cloudy,170,2013-05-08 15:56:00
11:56 AM,82.0,57.0,42,30.05,10.0,South,12.7,-,N/A,,Mostly Cloudy,180,2013-05-08 16:56:00
12:56 PM,84.0,57.9,41,30.04,10.0,SW,8.1,17.3,N/A,,Scattered Clouds,230,2013-05-08 17:56:00
1:56 PM,82.9,57.9,42,30.03,10.0,South,13.8,17.3,N/A,,Scattered Clouds,190,2013-05-08 18:56:00
2:56 PM,84.9,55.9,37,30.01,10.0,SSW,10.4,-,N/A,,Scattered Clouds,200,2013-05-08 19:56:00
3:56 PM,82.9,55.9,39,29.99,10.0,South,11.5,20.7,N/A,,Scattered Clouds,190,2013-05-08 20:56:00
4:56 PM,82.0,57.0,42,29.98,10.0,South,10.4,-,N/A,,Scattered Clouds,180,2013-05-08 21:56:00
5:56 PM,81.0,59.0,47,29.97,10.0,South,10.4,-,N/A,,Mostly Cloudy,190,2013-05-08 22:56:00
6:56 PM,80.1,59.0,48,29.96,10.0,South,11.5,-,N/A,,Mostly Cloudy,170,2013-05-08 23:56:00
7:56 PM,75.0,61.0,62,29.96,10.0,South,5.8,-,N/A,,Mostly Cloudy,190,2013-05-09 00:56:00
8:56 PM,73.0,61.0,66,29.97,10.0,South,6.9,-,N/A,,Mostly Cloudy,180,2013-05-09 01:56:00
9:56 PM,73.0,60.1,64,29.96,10.0,South,9.2,-,N/A,,Mostly Cloudy,170,2013-05-09 02:56:00
10:56 PM,71.1,59.0,66,29.96,10.0,South,9.2,-,N/A,,Overcast,180,2013-05-09 03:56:00
11:56 PM,70.0,57.9,65,29.97,10.0,South,11.5,-,N/A,,Overcast,190,2013-05-09 04:56:00